Location: Sotillo de Rioja
(42.4613°N, 3.0893°W)
Time: 02:34:27
(UTC+00:00)

Daily predictions for brighter satellites

Satellite Brightness Start Highest point End
(mag) Time Altitude Azimuth Time Altitude Azimuth Time Altitude Azimuth
Cosmos 1943 Rocket 4.1 03:37:56 23° NNE 03:39:05 24° NE 03:43:32 10° ESE
Lacrosse 5 4.0 03:45:19 24° ENE 03:45:19 24° ENE 03:47:48 10° E
ATLAS CENTAUR R/B 4.4 03:52:19 13° NNE 03:52:19 13° NNE 03:52:45 10° NNE
SL-16 R/B 3.5 04:01:35 34° NNE 04:01:35 34° NNE 04:04:43 10° NNE
CZ-2C R/B 3.7 03:57:29 10° NNE 04:01:40 39° ENE 04:01:40 39° ENE
BREEZE-M DEB (TANK) 4.2 04:09:15 39° NNE 04:09:15 39° NNE 04:17:29 10° E
Cosmos 2369 Rocket 3.7 04:06:41 12° N 04:11:21 34° ENE 04:16:30 10° ESE
Cosmos 407 Rocket 4.5 04:35:15 17° S 04:39:02 46° ESE 04:44:05 10° NNE
Cosmos 1842 Rocket 3.9 04:40:30 64° ENE 04:40:30 64° ENE 04:44:36 10° NNE
USA 215 4.2 04:34:46 10° NE 04:40:26 33° NNW 04:41:24 31° NW
ADEOS 4.1 04:36:01 10° N 04:39:45 45° NNW 04:39:45 45° NNW
Meteor 2-3 Rocket 3.9 04:36:44 10° N 04:42:31 73° E 04:48:17 10° SSE
BREEZE M DEB (TANK) 4.4 04:45:29 27° NNE 04:45:29 27° NNE 04:49:52 10° ENE
GEOS 3 Rocket 4.0 04:42:56 10° NE 04:48:14 63° SE 04:50:29 34° SSW
Cosmos 1484 Rocket 4.0 04:45:04 10° NNE 04:48:51 41° E 04:52:35 10° S
STARLINK-1099 4.4 04:50:25 44° SE 04:50:29 44° SE 04:54:24 10° ENE
BREEZE M DEB (TANK) 3.9 04:34:26 10° WNW 04:51:48 70° SW 04:56:07 10° SE
STARLINK-1104 4.2 04:55:03 48° SSE 04:55:18 49° SE 04:59:15 10° ENE
Cosmos 2221 2.5 04:56:38 52° S 04:57:37 79° E 05:01:56 10° N
Cosmos 614 Rocket 4.0 04:55:34 30° S 04:58:12 78° ESE 05:03:25 10° NNE
COSMO-SKYMED 1 3.8 04:54:58 10° SE 04:59:03 42° ENE 05:03:10 10° N
STARLINK-1144 4.0 04:59:24 51° SSE 04:59:49 53° SE 05:03:48 10° ENE
Cosmos 2237 Rocket 4.3 05:01:42 12° NNW 05:01:42 12° NNW 05:02:49 10° NNW
Cosmos 1190 Rocket 4.3 04:58:49 10° S 05:04:00 66° ESE 05:09:17 10° NNE
STARLINK-1128 3.8 05:04:01 55° S 05:04:30 60° SE 05:08:29 10° ENE
STARLINK-1103 3.9 05:04:22 52° S 05:04:57 59° SE 05:09:00 10° ENE
CZ-4C R/B 4.1 05:07:04 15° NNW 05:07:57 15° NNW 05:11:28 10° NNE
NOSS 3-1 (A) 4.5 05:07:07 35° W 05:09:16 41° WSW 05:17:14 10° S
STARLINK-1113 3.8 05:08:39 54° S 05:09:20 66° SE 05:13:22 10° ENE
STARLINK-1101 3.8 05:09:02 51° SSW 05:09:49 65° SE 05:13:53 10° ENE
Meteor 1-27 4.0 05:04:37 10° SSW 05:10:10 77° W 05:15:45 10° N
BREEZE-M DEB (TANK) 4.4 05:06:41 13° SW 05:13:10 40° SSE 05:16:09 10° ENE
USA 267 3.9 05:07:53 10° S 05:13:38 33° SW 05:14:14 32° WSW
STARLINK-1119 3.6 05:13:13 52° SSW 05:14:04 72° SE 05:18:07 10° ENE
STARLINK-1102 3.7 05:13:42 49° SSW 05:14:40 71° SE 05:18:45 10° ENE
Cosmos 1238 4.4 05:14:46 47° SSE 05:15:27 65° E 05:18:31 10° NNE
Meteor 1-31 Rocket 3.1 05:13:40 10° N 05:16:45 46° NW 05:16:45 46° NW
STARLINK-1114 3.6 05:17:35 48° SW 05:18:38 78° SE 05:22:42 10° NE
STARLINK-1111 3.6 05:18:24 46° SW 05:19:33 78° SE 05:23:39 10° NE
Meteor 2-2 Rocket 4.4 05:15:05 10° S 05:21:07 88° E 05:27:10 10° N
STARLINK-1130 (DARKSAT) 3.5 05:21:45 45° SW 05:22:56 84° SE 05:27:00 10° NE
Cosmos 1943 Rocket 2.2 05:19:34 21° NW 05:23:07 52° WSW 05:28:26 10° S
CZ-4B R/B 2.6 05:20:32 10° N 05:24:07 55° WNW 05:24:17 55° W
STARLINK-1073 3.5 05:23:01 42° SW 05:24:21 85° SE 05:28:28 10° NE
Lacrosse 5 1.9 05:24:33 35° WNW 05:26:26 56° SW 05:31:22 10° SSE
ATLAS CENTAUR R/B 3.7 05:28:31 12° NNW 05:28:31 12° NNW 05:29:57 10° N
STARLINK-1084 3.4 05:26:38 40° SW 05:28:01 89° NW 05:32:06 10° NE
STARLINK-1121 3.5 05:27:42 37° SW 05:29:15 89° NNW 05:33:22 10° NE
Cosmos 1605 Rocket 4.5 05:24:06 10° NNW 05:29:37 34° W 05:35:02 10° SSW
STARLINK-1106 3.5 05:32:31 34° WSW 05:34:15 82° NW 05:38:23 10° NE
ALOS 2.2 05:30:52 10° NNE 05:35:34 87° WNW 05:40:15 10° SSW
Cosmos 2016 Rocket 4.4 05:29:29 10° N 05:35:43 68° E 05:42:00 10° SSE
STARLINK-1112 3.5 05:37:14 30° WSW 05:39:09 76° NW 05:43:16 10° NE
Cosmos 1869 3.4 05:35:57 10° SSW 05:39:50 51° W 05:43:43 10° N
Cosmos 1400 Rocket 3.8 05:36:05 10° S 05:39:57 50° E 05:43:55 10° NNE
CZ-2C R/B 3.5 05:36:08 10° N 05:40:20 26° WNW 05:41:04 25° W
STARLINK-1118 3.8 05:42:59 24° NNW 05:42:59 24° NNW 05:44:50 10° NNE
SL-16 R/B 3.8 05:43:29 16° NW 05:43:57 16° NW 05:47:21 10° N
ATLAS 2AS CENTAUR R/B 4.5 05:37:51 10° NNW 05:44:24 29° NE 05:50:32 10° E
FENGYUN 3A 3.6 05:40:03 10° N 05:45:30 77° WNW 05:50:56 10° SSW
Cosmos 1633 2.4 05:42:01 10° NNW 05:45:39 67° W 05:49:14 10° S
Sich 1 3.2 05:41:29 10° N 05:45:47 74° E 05:50:04 10° SSE
Cosmos 1805 Rocket 3.4 05:41:38 10° N 05:45:59 78° W 05:50:18 10° S
ADEOS Rocket 3.9 05:40:24 10° SSE 05:46:30 58° ENE 05:53:19 10° N
SKYMED 2 3.6 05:42:49 10° S 05:47:05 57° W 05:51:23 10° NNW
Meteor PRIRODA 4.1 05:44:27 10° N 05:47:53 38° WNW 05:51:16 10° SW
Cosmos 2084 3.5 05:44:04 14° SW 05:47:54 73° NW 05:52:24 10° NNE
H-2A R/B 3.4 05:45:05 10° N 05:48:56 30° WNW 05:51:40 16° WSW
Cosmos 1500 Rocket 4.3 05:49:15 10° NNW 05:53:05 29° W 05:56:51 10° SSW
Cosmos 2369 Rocket 2.7 05:50:09 10° NW 05:55:22 37° WSW 06:00:33 10° S
Aureole 2 Rocket 3.2 05:57:41 23° W 05:58:24 26° WSW 06:01:08 10° SSW
Cosmos 1603 4.3 05:55:17 13° WSW 05:59:49 35° WNW 06:05:00 10° N
Cosmos 1943 3.6 05:58:21 10° SW 06:03:36 40° WNW 06:08:55 10° NNE
Cosmos 1656 Rocket 3.7 05:58:09 10° NNW 06:03:48 69° WSW 06:09:26 10° SSE
Cosmos 2173 Rocket 4.1 05:58:03 10° NNW 06:04:04 50° W 06:10:00 10° SSW
DELTA 2 R/B (1) 4.2 06:00:51 11° WSW 06:06:07 53° SSE 06:11:31 10° E
Shenzhou-11 Module 1.5 06:06:06 21° W 06:07:43 87° NNW 06:10:21 10° E
Okean O Rocket 1.6 06:04:19 10° NNE 06:08:42 89° WNW 06:13:03 10° SSW
Cosmos 1151 Rocket 3.7 06:05:41 10° S 06:09:54 60° E 06:14:12 10° NNE
CZ-4B DEB 4.2 06:04:33 10° N 06:09:58 62° WNW 06:15:20 10° SSW
SMAP 4.3 06:10:18 10° NNE 06:14:49 48° E 06:19:19 10° S
STARLINK-1098 4.1 06:11:56 13° W 06:15:19 43° NNW 06:19:15 10° NE
CZ-4B R/B 3.1 06:11:09 10° NNE 06:16:30 84° WNW 06:21:46 10° SSW
Cosmos 1328 Rocket 3.8 06:13:25 10° S 06:17:51 77° E 06:22:18 10° N
Cosmos 1140 Rocket 4.2 06:14:40 10° SW 06:19:23 33° WNW 06:24:09 10° N
STARLINK-1123 4.2 06:16:13 12° W 06:19:48 41° NNW 06:23:40 10° NE
Cosmos 1862 3.5 06:16:12 10° NNW 06:20:00 46° W 06:23:48 10° SSW
Cosmos 1954 Rocket 4.3 06:15:04 10° SW 06:20:11 48° WNW 06:25:21 10° N
Helios 1A Rocket 3.0 06:17:41 10° NNE 06:21:52 85° ESE 06:25:58 10° SSW
Cosmos 1484 Rocket 4.4 06:20:28 10° NNW 06:22:55 16° WNW 06:25:23 10° WSW
USA 116 3.9 06:21:31 10° SSW 06:24:22 30° W 06:27:10 10° NW
Cosmos 921 Rocket 4.2 06:21:30 10° NW 06:24:57 23° W 06:28:21 10° SSW
STARLINK-1097 4.3 06:21:14 10° W 06:25:04 38° NNW 06:28:55 10° NE
Cosmos 482 Debris 2.8 06:23:51 13° WNW 06:25:16 43° SW 06:27:07 10° SE
Cosmos 1850 Rocket 4.2 06:20:03 10° SSW 06:25:21 80° ESE 06:30:39 10° NNE
Cosmos 1340 2.7 06:25:44 10° N 06:29:31 83° E 06:33:16 10° S
STARLINK-1099 4.4 06:26:11 10° W 06:29:58 36° NNW 06:33:47 10° NE
STARLINK-1104 4.4 06:31:05 10° W 06:34:50 34° NNW 06:38:36 10° NE
COSMO-SKYMED 1 4.0 06:32:28 10° SW 06:35:24 18° W 06:38:21 10° NW
